Home   Weather   Angels Camp   Past weeks

Flag for USA Past Weather in Angels Camp, California, USA — Yesterday and Last 2 Weeks

Now
101 °F

Sunny.


Feels Like: 96 °F
Forecast: 62 / 98 °F
Wind: 13 mph from Northwest

Location: Modesto City-County-Sham Field

Current Time: Jul 23, 2017 at 7:58:58 pm

Latest Report: Jul 23, 2017 at 6:53 pm


Visibility: 10 mi

Pressure: 29.68 "Hg

Humidity: 13%

Dew Point: 41 °F

Location of Angels CampLocation

Past Weather in Angels Camp — Graph

°F

Angels Camp Temperature Yesterday

Maximum temperature yesterday: 102 °F (at 4:53 pm)
Minimum temperature yesterday: 64 °F (at 5:53 am)
Average temperature yesterday: 83 °F

High & Low Weather Summary for the Past Weeks

 TemperatureHumidityPressure
High105 °F (Jul 16, 3:53 pm)71% (Jul 23, 6:53 am)30.00 "Hg (Jul 23, 6:53 am)
Low63 °F (Jul 20, 4:53 am)6% (Jul 8, 6:53 pm)29.68 "Hg (Jul 23, 6:53 pm)
Average85 °F32%29.86 "Hg
* Reported Jul 8 6:53 pm — Jul 23 6:53 pm, Angels Camp. Weather by CustomWeather, © 2017

Note: Actual official high and low records may vary slightly from our data, if they occured in-between our weather recording intervals... More about our weather records

Advertising

Angels Camp Weather History for the Previous 24 Hours

Scroll right to see more
 ConditionsComfort  
Time TempWeatherWind HumidityBarometerVisibility
6:53 pm
Sun, Jul 23
101 °FSunny.13 mph13%29.68 "Hg10 mi
5:53 pm103 °FSunny.13 mph12%29.69 "Hg10 mi
4:53 pm103 °FSunny.12 mph14%29.70 "Hg10 mi
3:53 pm102 °FSunny.10 mph18%29.72 "Hg10 mi
2:53 pm102 °FSunny.9 mph20%29.73 "Hg10 mi
1:53 pm100 °FSunny.No wind17%29.75 "Hg10 mi
12:53 pm98 °FSunny.6 mph19%29.77 "Hg10 mi
11:53 am97 °FSunny.6 mph19%29.78 "Hg10 mi
10:53 am94 °FScattered clouds.No wind20%29.80 "Hg10 mi
9:53 am89 °FScattered clouds.3 mph27%29.80 "Hg10 mi
8:53 am84 °FScattered clouds.No wind35%29.81 "Hg10 mi
7:53 am74 °FPartly sunny.No wind67%29.80 "Hg10 mi
6:53 am70 °FPartly sunny.No wind71%29.78 "Hg10 mi
5:53 am71 °FClear.No wind66%29.78 "Hg10 mi
4:53 am70 °FClear.No wind68%29.78 "Hg10 mi
3:53 am74 °FClear.No wind56%29.78 "Hg10 mi
2:53 am74 °FClear.No wind56%29.78 "Hg10 mi
1:53 am79 °FClear.No wind45%29.79 "Hg10 mi
12:53 am80 °FClear.5 mph45%29.79 "Hg10 mi
11:53 pm
Sat, Jul 22
83 °FClear.6 mph38%29.79 "Hg10 mi
10:53 pm84 °FClear.5 mph38%29.79 "Hg10 mi
9:53 pm88 °FClear.9 mph31%29.78 "Hg10 mi
8:53 pm87 °FClear.No wind35%29.77 "Hg10 mi
7:53 pm94 °FSunny.6 mph27%29.76 "Hg10 mi
Weather by CustomWeather, © 2017

See weather overviewHow to use our weather pages